�������l�o���
Date,Time,MP-1(��Sv/h),MP-2(��Sv/h),MP-3(��Sv/h),MP-4(��Sv/h),MP-5(��Sv/h),MP-6(��Sv/h),MP-7(��Sv/h),MP-8(��Sv/h),����,����(m/s),���J
2024/03/07,00:00,0.487,0.732,0.464,0.916,0.651,0.305,0.541,0.509,�k�k��,7.5,��
2024/03/07,00:10,0.488,0.735,0.467,0.919,0.653,0.304,0.542,0.508,�k�k��,7.0,��
2024/03/07,00:20,0.488,0.734,0.467,0.918,0.651,0.305,0.541,0.510,�k�k��,7.7,��
2024/03/07,00:30,0.488,0.733,0.465,0.918,0.651,0.305,0.540,0.510,�k�k��,7.3,��
2024/03/07,00:40,0.488,0.734,0.466,0.919,0.652,0.306,0.542,0.510,�k�k��,6.5,��
2024/03/07,00:50,0.487,0.734,0.467,0.917,0.652,0.304,0.543,0.509,�k�k��,7.0,��
2024/03/07,01:00,0.488,0.734,0.466,0.917,0.652,0.305,0.540,0.510,�k�k��,7.1,��
2024/03/07,01:10,0.487,0.734,0.467,0.918,0.650,0.305,0.540,0.510,�k�k��,8.2,��
2024/03/07,01:20,0.488,0.733,0.467,0.918,0.649,0.304,0.540,0.510,�k�k��,7.4,��
2024/03/07,01:30,0.487,0.734,0.466,0.918,0.651,0.304,0.541,0.510,�k�k��,6.9,��
2024/03/07,01:40,0.489,0.735,0.467,0.919,0.652,0.304,0.541,0.510,�k�k��,6.7,��
2024/03/07,01:50,0.488,0.735,0.468,0.918,0.652,0.305,0.541,0.509,�k�k��,6.5,��
2024/03/07,02:00,0.488,0.736,0.466,0.919,0.652,0.304,0.543,0.509,�k�k��,6.6,��
2024/03/07,02:10,0.489,0.735,0.466,0.919,0.651,0.305,0.542,0.510,�k�k��,6.8,��
2024/03/07,02:20,0.489,0.734,0.467,0.919,0.651,0.305,0.542,0.510,�k�k��,7.0,��
2024/03/07,02:30,0.490,0.738,0.468,0.918,0.653,0.304,0.541,0.510,�k�k��,7.6,��
2024/03/07,02:40,0.489,0.735,0.467,0.920,0.652,0.304,0.543,0.511,�k�k��,6.9,��
2024/03/07,02:50,0.489,0.735,0.467,0.921,0.651,0.305,0.542,0.510,�k�k��,5.5,��
2024/03/07,03:00,0.489,0.734,0.468,0.919,0.652,0.306,0.541,0.508,�k�k��,8.9,��
2024/03/07,03:10,0.489,0.735,0.466,0.919,0.653,0.305,0.541,0.510,�k�k��,7.6,��
2024/03/07,03:20,0.489,0.736,0.468,0.919,0.652,0.305,0.542,0.508,�k�k��,8.3,��
2024/03/07,03:30,0.489,0.736,0.467,0.918,0.654,0.306,0.542,0.510,�k�k��,8.5,��
2024/03/07,03:40,0.489,0.736,0.466,0.919,0.654,0.305,0.543,0.511,�k�k��,7.9,��
2024/03/07,03:50,0.488,0.734,0.468,0.919,0.653,0.304,0.541,0.510,�k�k��,8.3,��
2024/03/07,04:00,0.490,0.735,0.467,0.917,0.653,0.305,0.542,0.509,�k�k��,7.8,��
2024/03/07,04:10,0.487,0.734,0.468,0.918,0.653,0.306,0.542,0.510,�k�k��,8.5,��
2024/03/07,04:20,0.487,0.734,0.466,0.920,0.653,0.301,0.542,0.509,�k�k��,7.6,��
2024/03/07,04:30,0.487,0.734,0.467,0.920,0.650,0.305,0.540,0.510,�k�k��,6.8,��
2024/03/07,04:40,0.488,0.732,0.467,0.919,0.654,0.304,0.542,0.510,�k�k��,5.5,��
2024/03/07,04:50,0.488,0.736,0.466,0.920,0.653,0.304,0.542,0.509,�k�k��,5.7,��
2024/03/07,05:00,0.489,0.735,0.466,0.920,0.652,0.305,0.543,0.509,�k�k��,7.3,��
2024/03/07,05:10,0.489,0.735,0.467,0.923,0.652,0.304,0.542,0.508,�k�k��,5.4,��
2024/03/07,05:20,0.489,0.736,0.466,0.921,0.654,0.304,0.541,0.511,�k�k��,4.6,��
2024/03/07,05:30,0.488,0.736,0.466,0.918,0.652,0.304,0.542,0.510,�k�k��,5.1,��
2024/03/07,05:40,0.489,0.736,0.467,0.921,0.652,0.305,0.540,0.510,�k�k��,5.2,��
2024/03/07,05:50,0.487,0.735,0.466,0.921,0.654,0.304,0.542,0.510,�k�k��,5.9,��
2024/03/07,06:00,0.488,0.735,0.467,0.921,0.653,0.304,0.542,0.509,�k�k��,4.6,��
2024/03/07,06:10,0.488,0.734,0.467,0.920,0.655,0.304,0.539,0.510,�k�k��,5.2,��
2024/03/07,06:20,0.488,0.735,0.466,0.920,0.653,0.304,0.540,0.509,�k�k��,6.3,��
2024/03/07,06:30,0.489,0.735,0.465,0.920,0.653,0.304,0.540,0.510,�k�k��,7.6,��
2024/03/07,06:40,0.489,0.735,0.467,0.920,0.652,0.304,0.542,0.511,�k�k��,8.4,��
2024/03/07,06:50,0.488,0.736,0.466,0.921,0.653,0.304,0.542,0.511,�k�k��,8.2,��
2024/03/07,07:00,0.488,0.735,0.465,0.920,0.653,0.305,0.542,0.510,�k�k��,7.4,��
2024/03/07,07:10,0.489,0.736,0.465,0.919,0.653,0.303,0.543,0.508,�k�k��,7.1,��
2024/03/07,07:20,0.487,0.733,0.465,0.920,0.654,0.305,0.543,0.511,�k�k��,6.3,��
2024/03/07,07:30,0.489,0.736,0.466,0.922,0.652,0.304,0.542,0.511,�k�k��,6.9,��
2024/03/07,07:40,0.490,0.736,0.466,0.919,0.654,0.303,0.543,0.509,�k�k��,6.7,��
2024/03/07,07:50,0.490,0.736,0.466,0.922,0.653,0.303,0.542,0.509,�k�k��,7.1,��
2024/03/07,08:00,0.489,0.736,0.467,0.920,0.653,0.303,0.542,0.510,�k�k��,7.2,��
2024/03/07,08:10,0.489,0.737,0.466,0.920,0.654,0.303,0.543,0.510,�k�k��,8.5,��
2024/03/07,08:20,0.489,0.738,0.467,0.922,0.654,0.301,0.543,0.510,�k�k��,7.3,��
2024/03/07,08:30,0.489,0.738,0.466,0.922,0.653,0.302,0.543,0.511,�k�k��,8.5,��
2024/03/07,08:40,0.490,0.736,0.468,0.920,0.654,0.303,0.544,0.510,�k�k��,8.6,��
2024/03/07,08:50,0.488,0.739,0.468,0.920,0.656,0.303,0.544,0.511,�k,8.2,��
2024/03/07,09:00,0.489,0.739,0.469,0.920,0.656,0.302,0.543,0.511,�k�k��,8.8,��
2024/03/07,09:10,0.490,0.739,0.468,0.921,0.656,0.302,0.542,0.512,�k,9.8,��
2024/03/07,09:20,0.491,0.738,0.470,0.922,0.655,0.304,0.542,0.511,�k,9.6,��
2024/03/07,09:30,0.490,0.739,0.469,0.923,0.657,0.303,0.541,0.510,�k,8.7,��
2024/03/07,09:40,0.493,0.739,0.470,0.924,0.656,0.304,0.542,0.511,�k,9.1,��
2024/03/07,09:50,0.490,0.736,0.470,0.921,0.656,0.304,0.543,0.512,�k,7.7,��
2024/03/07,10:00,0.492,0.739,0.470,0.921,0.659,0.304,0.543,0.511,���k��,6.4,��
2024/03/07,10:10,0.492,0.739,0.468,0.924,0.661,0.305,0.545,0.512,�k�k��,6.8,��
2024/03/07,10:20,0.492,0.741,0.469,0.924,0.658,0.307,0.543,0.512,�k�k��,7.1,��
2024/03/07,10:30,0.490,0.738,0.469,0.926,0.659,0.306,0.543,0.512,�k,8.2,��
2024/03/07,10:40,0.493,0.738,0.471,0.925,0.662,0.305,0.543,0.510,�k,7.5,��
2024/03/07,10:50,0.493,0.741,0.470,0.925,0.660,0.306,0.541,0.510,�k,7.5,��
2024/03/07,11:00,0.494,0.741,0.470,0.923,0.663,0.306,0.542,0.511,�k,8.7,��
2024/03/07,11:10,0.494,0.743,0.472,0.925,0.663,0.306,0.543,0.512,�k,7.9,��
2024/03/07,11:20,0.491,0.742,0.472,0.925,0.661,0.306,0.543,0.511,�k,7.6,��
2024/03/07,11:30,0.495,0.744,0.471,0.926,0.663,0.308,0.543,0.510,�k,6.4,��
2024/03/07,11:40,0.493,0.743,0.471,0.926,0.662,0.307,0.543,0.511,�k,6.4,��
2024/03/07,11:50,0.494,0.745,0.471,0.925,0.664,0.307,0.543,0.512,�k�k��,8.3,��
2024/03/07,12:00,0.494,0.744,0.472,0.926,0.662,0.306,0.542,0.513,�k,9.4,��
2024/03/07,12:10,0.494,0.744,0.473,0.927,0.662,0.306,0.544,0.512,�k,8.9,��
2024/03/07,12:20,0.493,0.744,0.472,0.927,0.663,0.306,0.542,0.514,�k�k��,8.0,��
2024/03/07,12:30,0.493,0.745,0.473,0.926,0.664,0.305,0.545,0.514,�k�k��,8.6,��
2024/03/07,12:40,0.494,0.744,0.474,0.926,0.662,0.306,0.545,0.512,�k,8.7,��
2024/03/07,12:50,0.496,0.745,0.474,0.926,0.665,0.306,0.544,0.512,�k�k��,6.7,��
2024/03/07,13:00,0.494,0.743,0.473,0.927,0.664,0.307,0.544,0.512,�k,9.1,��
2024/03/07,13:10,0.494,0.745,0.474,0.927,0.664,0.306,0.543,0.511,�k�k��,8.9,��
2024/03/07,13:20,0.495,0.747,0.474,0.928,0.664,0.307,0.545,0.513,�k�k��,8.7,��
2024/03/07,13:30,0.494,0.746,0.473,0.928,0.665,0.307,0.545,0.512,�k�k��,7.9,��
2024/03/07,13:40,0.495,0.747,0.473,0.927,0.665,0.307,0.544,0.513,�k�k��,8.5,��
2024/03/07,13:50,0.495,0.746,0.474,0.928,0.666,0.308,0.544,0.512,�k�k��,8.6,��
2024/03/07,14:00,0.495,0.747,0.473,0.927,0.667,0.307,0.545,0.512,�k�k��,8.1,��
2024/03/07,14:10,0.497,0.750,0.475,0.928,0.666,0.308,0.545,0.512,�k�k��,7.9,��
2024/03/07,14:20,0.496,0.747,0.474,0.926,0.665,0.308,0.545,0.510,�k�k��,6.7,��
2024/03/07,14:30,0.494,0.747,0.474,0.928,0.667,0.308,0.546,0.510,�k�k��,6.3,��
2024/03/07,14:40,0.498,0.748,0.475,0.928,0.665,0.306,0.546,0.512,�k�k��,7.1,��
2024/03/07,14:50,0.497,0.748,0.475,0.930,0.666,0.307,0.545,0.512,�k�k��,6.9,��
2024/03/07,15:00,0.496,0.751,0.475,0.929,0.668,0.307,0.545,0.511,�k�k��,6.7,��
2024/03/07,15:10,0.497,0.752,0.476,0.928,0.666,0.308,0.546,0.510,�k�k��,6.3,��
2024/03/07,15:20,0.497,0.751,0.475,0.928,0.666,0.307,0.546,0.511,�k�k��,5.6,��
2024/03/07,15:30,0.498,0.752,0.476,0.929,0.668,0.307,0.547,0.512,�k�k��,5.9,��
2024/03/07,15:40,0.496,0.750,0.476,0.929,0.667,0.306,0.546,0.513,�k�k��,5.7,��
2024/03/07,15:50,0.496,0.750,0.476,0.930,0.668,0.307,0.546,0.514,�k�k��,5.4,��
2024/03/07,16:00,0.496,0.750,0.474,0.927,0.667,0.307,0.546,0.514,�k�k��,5.2,��
2024/03/07,16:10,0.496,0.751,0.474,0.928,0.667,0.308,0.547,0.512,�k�k��,4.8,��
2024/03/07,16:20,0.497,0.751,0.476,0.930,0.669,0.308,0.546,0.513,�k�k��,4.7,��
2024/03/07,16:30,0.496,0.751,0.475,0.928,0.668,0.309,0.547,0.512,�k�k��,4.3,��
2024/03/07,16:40,0.498,0.748,0.475,0.928,0.666,0.307,0.548,0.515,�k�k��,4.0,��
2024/03/07,16:50,0.497,0.751,0.476,0.928,0.669,0.308,0.549,0.513,�k,3.3,��
2024/03/07,17:00,0.496,0.750,0.475,0.928,0.669,0.307,0.548,0.515,�k�k��,2.6,��
2024/03/07,17:10,0.497,0.751,0.474,0.928,0.668,0.308,0.548,0.513,�k�k��,2.5,��
2024/03/07,17:20,0.499,0.751,0.475,0.928,0.668,0.307,0.547,0.513,�k�k��,3.8,��
2024/03/07,17:30,0.496,0.748,0.476,0.929,0.669,0.307,0.547,0.512,�k�k��,2.8,��
2024/03/07,17:40,0.498,0.748,0.475,0.930,0.669,0.308,0.547,0.513,�k,2.6,��
2024/03/07,17:50,0.496,0.750,0.476,0.929,0.668,0.307,0.548,0.514,�k,1.7,��
2024/03/07,18:00,0.497,0.750,0.475,0.930,0.668,0.307,0.546,0.512,�k�k��,2.0,��
2024/03/07,18:10,0.497,0.751,0.475,0.930,0.669,0.307,0.547,0.513,�k,2.3,��
2024/03/07,18:20,0.497,0.751,0.476,0.929,0.670,0.307,0.545,0.514,�k,2.0,��
2024/03/07,18:30,0.498,0.750,0.475,0.927,0.667,0.308,0.547,0.513,�k�k��,2.0,��
2024/03/07,18:40,0.497,0.751,0.475,0.927,0.668,0.305,0.546,0.513,�k,1.9,��
2024/03/07,18:50,0.497,0.750,0.474,0.929,0.668,0.307,0.545,0.512,�k�k��,1.9,��
2024/03/07,19:00,0.495,0.750,0.475,0.931,0.670,0.307,0.546,0.512,�k��,2.5,��
2024/03/07,19:10,0.496,0.752,0.476,0.930,0.669,0.306,0.546,0.514,�k��,2.3,��
2024/03/07,19:20,0.497,0.750,0.475,0.931,0.668,0.308,0.546,0.513,���k��,2.0,��
2024/03/07,19:30,0.496,0.749,0.475,0.930,0.669,0.309,0.546,0.513,�k�k��,1.8,��
2024/03/07,19:40,0.495,0.751,0.474,0.929,0.669,0.307,0.545,0.513,�k�k��,2.9,��
2024/03/07,19:50,0.497,0.750,0.475,0.930,0.669,0.307,0.548,0.513,�k�k��,2.6,��
2024/03/07,20:00,0.497,0.753,0.474,0.932,0.669,0.309,0.545,0.512,�k�k��,3.3,��
2024/03/07,20:10,0.497,0.752,0.475,0.929,0.668,0.307,0.547,0.513,�k�k��,2.9,��
2024/03/07,20:20,0.496,0.752,0.474,0.930,0.668,0.309,0.545,0.512,�k,1.4,��
2024/03/07,20:30,0.497,0.750,0.475,0.930,0.670,0.307,0.545,0.513,�k�k��,1.9,��
2024/03/07,20:40,0.498,0.749,0.476,0.931,0.669,0.307,0.544,0.512,�k��,3.0,��
2024/03/07,20:50,0.495,0.749,0.476,0.928,0.667,0.308,0.544,0.512,�k��,3.5,��
2024/03/07,21:00,0.496,0.751,0.475,0.929,0.670,0.307,0.545,0.511,�k��,3.9,��
2024/03/07,21:10,0.498,0.752,0.474,0.930,0.671,0.307,0.547,0.513,�k��,4.1,��
2024/03/07,21:20,0.498,0.751,0.475,0.929,0.668,0.308,0.546,0.513,�k��,4.1,��
2024/03/07,21:30,0.499,0.750,0.476,0.931,0.668,0.307,0.545,0.513,�k��,4.9,��
2024/03/07,21:40,0.495,0.751,0.475,0.929,0.670,0.308,0.546,0.513,�k��,5.6,��
2024/03/07,21:50,0.496,0.752,0.477,0.929,0.669,0.308,0.546,0.513,�k��,6.1,��
2024/03/07,22:00,0.497,0.751,0.476,0.929,0.672,0.307,0.547,0.514,�k��,6.5,��
2024/03/07,22:10,0.497,0.750,0.476,0.930,0.670,0.308,0.547,0.515,�k��,6.4,��
2024/03/07,22:20,0.497,0.752,0.476,0.930,0.669,0.307,0.547,0.514,�k��,6.3,��
2024/03/07,22:30,0.497,0.749,0.476,0.933,0.670,0.309,0.546,0.512,�k��,6.1,��
2024/03/07,22:40,0.498,0.752,0.476,0.930,0.670,0.308,0.547,0.513,�k��,5.9,��
2024/03/07,22:50,0.496,0.752,0.478,0.931,0.669,0.308,0.547,0.513,�k��,6.3,��
2024/03/07,23:00,0.496,0.752,0.476,0.931,0.669,0.307,0.546,0.514,�k�k��,5.6,��
2024/03/07,23:10,0.499,0.753,0.476,0.929,0.669,0.309,0.546,0.512,�k�k��,5.6,��
2024/03/07,23:20,0.496,0.751,0.476,0.931,0.670,0.308,0.547,0.514,�k�k��,6.0,��
2024/03/07,23:30,0.497,0.751,0.476,0.931,0.670,0.306,0.546,0.514,�k��,6.3,��
2024/03/07,23:40,0.497,0.751,0.477,0.931,0.669,0.308,0.547,0.513,�k��,6.3,��
2024/03/07,23:50,0.497,0.752,0.475,0.930,0.670,0.308,0.546,0.515,�k�k��,5.9,��
